Overview Statistics Trail Chart Weather Telemetry Raw packets
 

This is the latest recevied weather packets stored in our database for station/object SV9TNF-51. If no packets are shown the sender has not sent any weather packets the latest 10 day(s).

<< 83 84 85 86 87 88 89 >>
Time Temp. Humidity Pressure Rain* Wind** Luminosity Snow
1788055627 23.89° C 69% 1013.2 hPa 0 mm 4.02 m/s, 339° - -
1788055327 23.89° C 69% 1013.2 hPa 0 mm 2.24 m/s, 140° - -
1788055027 23.89° C 68% 1013.2 hPa 0 mm 4.02 m/s, 308° - -
1788054727 23.89° C 68% 1013.2 hPa 0 mm 1.79 m/s, 200° - -
1788054426 24.44° C 67% 1012.5 hPa 0 mm 4.02 m/s, 339° - -
1788054126 24.44° C 67% 1012.5 hPa 0 mm 3.13 m/s, 297° - -
1788053827 24.44° C 67% 1012.5 hPa 0 mm 2.68 m/s, 234° - -
1788053526 23.89° C 67% 1012.5 hPa 0 mm 6.26 m/s, 2° - -
1788053226 23.89° C 67% 1012.5 hPa 0 mm 1.79 m/s, 73° - -
1788052926 23.89° C 66% 1012.5 hPa 0 mm 1.79 m/s, 199° - -
1788052626 23.89° C 66% 1012.5 hPa 0 mm 2.68 m/s, 157° - -
1788052326 23.89° C 65% 1013.2 hPa 0 mm 3.13 m/s, 142° - -
1788052026 23.89° C 66% 1013.2 hPa 0 mm 2.68 m/s, 326° - -
1788051726 23.89° C 65% 1013.2 hPa 0 mm 5.81 m/s, 272° - -
1788051426 23.89° C 65% 1013.2 hPa 0 mm 5.81 m/s, 333° - -
1788051125 23.89° C 65% 1013.2 hPa 0 mm 4.92 m/s, 331° - -
1788050826 23.89° C 64% 1012.5 hPa 0 mm 5.81 m/s, 331° - -
1788050525 23.33° C 64% 1012.5 hPa 0 mm 4.92 m/s, 306° - -
1788050225 23.33° C 63% 1012.5 hPa 0 mm 4.92 m/s, 330° - -
1788049925 23.89° C 63% 1012.5 hPa 0 mm 4.02 m/s, 149° - -
1788049625 24.44° C 63% 1012.5 hPa 0 mm 2.68 m/s, 215° - -
1788049325 24.44° C 62% 1012.5 hPa 0 mm 4.92 m/s, 7° - -
1788049025 24.44° C 62% 1012.5 hPa 0 mm 5.81 m/s, 331° - -
1788048725 24.44° C 62% 1012.5 hPa 0 mm 3.13 m/s, 2° - -
1788048425 24.44° C 63% 1012.5 hPa 0 mm 1.34 m/s, 159° - -

* Rain latest hour (hover to see other rain measurements)
** Current wind speed in m/s (hover to see current wind gust speed)